sat.trackr.live / text

‹ back to catalog

ONEWEB-0712

NORAD 54680 · 2022-166AQ

PAYLOAD ACTIVE UNKNOWN

§ Identity

Operator
Country
UK
Launch date
2022-12-08
Launch site
AFETR
Launch vehicle
Mass (kg)
RCS (m²)

Purposes: comms

External: N2YO · Heavens-Above · Gunter

§ Orbital elements

Epoch: 2026-05-25T04:26:17.321280Z

Period
109.37 min
Inclination
87.9107°
Eccentricity
0.0001956
Mean motion
13.16593164 rev/d
Perigee alt
1,196.3 km
Apogee alt
1,199.2 km
Semi-major
7,575.9 km
B*
5.8684e-5
RAAN
233.3409°
Arg perigee
86.0192°
Mean anomaly
274.1162°
Rev number
16,903

§ Raw data

ONEWEB-07121 54680U 22166AQ  26145.18492270  .00000035  00000+0  58684-4 0  99932 54680  87.9107 233.3409 0001956  86.0192 274.1162 13.16593164169039

JSON: /api/v1/satellites/54680 · /tle

For live sub-satellite position, see the globe view (requires WebGL).

§ Visibility from observer

Set your observer location to see the next 7 days of passes ≥ 10°. The values pass through the URL so the page stays shareable.

No JS? Fill the form by hand. The geolocation button needs JavaScript.